Location: Courçay
(47.2523°N, 0.8761°E)
Time: 22:07:37
(UTC+00:00)

Cosmos 2058 - Pass Details

Date: 18 November 2025
Orbit: 529 x 541 km, 82.5° (Epoch: 05 December)

Event Time Altitude Azimuth Distance (km) Brightness Sun altitude
Rises 17:27:37 0° 355° (N) 2,705 6.2 -11.8°
Reaches altitude 10° 17:29:51 10° 2° (N) 1,811 5.3 -12.2°
Maximum altitude 17:33:42 47° 77° (ENE) 723 3.0 -12.8°
Drops below altitude 10° 17:37:32 10° 152° (SSE) 1,802 5.3 -13.4°
Sets 17:39:44 0° 158° (SSE) 2,690 6.3 -13.8°
